This is the latest recevied weather packets stored in our database for station/object KC3BHK-2. If no packets are shown the sender has not sent any weather packets the latest 10 day(s).
| Time | Temp. | Humidity | Pressure | Rain* | Wind** | Luminosity | Snow |
|---|---|---|---|---|---|---|---|
| 1788532457 | 27.78° C | - | - | 0 mm | 0.89 m/s, 294° | - | - |
| 1788532175 | 27.22° C | - | - | 0 mm | 2.68 m/s, 263° | - | - |
| 1788531847 | 26.67° C | - | - | 0 mm | 3.13 m/s, 255° | - | - |
| 1788531543 | 26.67° C | - | - | 0 mm | 2.24 m/s, 280° | - | - |
| 1788530929 | 26.11° C | - | - | 0 mm | 4.47 m/s, 269° | - | - |
| 1788530644 | 26.11° C | - | - | 0 mm | 2.68 m/s, 270° | - | - |
| 1788530320 | 25.56° C | - | - | 0 mm | 4.47 m/s, 273° | - | - |
| 1788530015 | 25° C | - | - | 0 mm | 2.24 m/s, 287° | - | - |
| 1788529710 | 24.44° C | - | - | 0 mm | 2.24 m/s, 257° | - | - |
| 1788529403 | 24.44° C | - | - | 0 mm | 0.89 m/s, 322° | - | - |
| 1788529164 | 26.11° C | - | - | 0 mm | 1.79 m/s, 285° | - | - |
| 1788529098 | 26.11° C | - | - | 0 mm | 1.79 m/s, 285° | - | - |
| 1788528793 | 25° C | - | - | 0 mm | 2.24 m/s, 276° | - | - |
| 1788528488 | 25.56° C | - | - | 0 mm | 1.34 m/s, 287° | - | - |
| 1788528183 | 26.11° C | - | - | 0 mm | 2.24 m/s, 231° | - | - |
| 1788527878 | 26.11° C | - | - | 0 mm | 3.13 m/s, 274° | - | - |
| 1788527571 | 26.67° C | - | - | 0 mm | 0.89 m/s, 354° | - | - |
| 1788527266 | 25° C | - | - | 0 mm | 2.68 m/s, 293° | - | - |
| 1788526961 | 25° C | - | - | 0 mm | 2.24 m/s, 264° | - | - |
| 1788526656 | 24.44° C | - | - | 0 mm | 1.79 m/s, 256° | - | - |
| 1788526363 | 25° C | - | - | 0 mm | 2.24 m/s, 257° | - | - |
| 1788526046 | 23.89° C | - | - | 0 mm | 0.45 m/s, 193° | - | - |
| 1788525739 | 23.33° C | - | - | 0 mm | 1.79 m/s, 155° | - | - |
| 1788525434 | 23.89° C | - | - | 0 mm | 1.34 m/s, 260° | - | - |
| 1788525129 | 23.33° C | - | - | 0 mm | 0.89 m/s, 281° | - | - |
* Rain latest hour (hover to see other rain measurements)
** Current wind speed in m/s (hover to see current wind gust speed)